{"data":{"norad_id":66533,"intl_designator":"2025-265T","name":"STARLINK-35707","alt_names":[],"object_type":"PAYLOAD","status":"ACTIVE","operator":null,"country":"US","launch_date":"2025-11-19","launch_site_code":"AFETR","launch_vehicle":null,"mission":null,"orbit_class":"UNKNOWN","rcs_meters":null,"size_class":null,"mass_kg":null,"dimensions":null,"purposes":["comms"],"wikipedia_slug":null,"has_3d_model":false,"image_url":null,"decayed_at":null,"tle_current":{"epoch":"2026-05-25T04:38:59.035776Z","epoch_age_seconds":54419,"freshness":"FRESH","line1":"1 66533U 25265T   26145.19373884  .00013312  00000+0  49235-3 0  9999","line2":"2 66533  42.9990 205.8877 0001459 273.3112  86.7573 15.27583889 28814","mean_motion":15.27583889,"eccentricity":0.0001459,"inclination_deg":42.999,"raan_deg":205.8877,"arg_perigee_deg":273.3112,"mean_anomaly_deg":86.7573,"bstar":0.00049235,"rev_number":2881,"period_min":94.266508724615,"perigee_km":482.0364056469,"apogee_km":484.0384963517,"semimajor_km":6861.1744509993,"source":"CELESTRAK","updated_at":"2026-05-25T13:38:21.252871Z"}}}